User: anonymous   Login
Location: Unspecified
(0.0000°N, 0.0000°E)
Time: 13:38:18
(UTC+00:00)
Language:

MetOp-B - Orbit

View from above orbital plane
View from above orbital plane
View from above satellite
View from above satellite

Ground track
Ground track

The orbit data is extracted from the following two-line orbital elements,

1 38771U 12049A   18263.81925334 -.00000041 +00000-0 +11184-5 0  9993
2 38771 098.7047 321.5305 0002016 052.2773 060.0910 14.21490140311723
Epoch (UTC): 20 September 2018 19:39:43
Eccentricity: 0.0002016
inclination: 98.7047°
perigee height: 819 km
apogee height: 822 km
right ascension of ascending node: 321.5305°
argument of perigee: 52.2773°
revolutions per day: 14.21490140
mean anomaly at epoch: 60.0910°
orbit number at epoch: 31172

The dashed part of the orbit path shows where the satellite is in the earth's shadow,  

DLR